FW9150 Weather Reports


time (UTC)temp
C
wind
direction
speed
KPH
gust
KPH
rain 1hr
cm
rain 24hr
cm
rain mn
cm
humidity
%
barometer
mb
20260903142216 7 247 0.0 0.0 0.00 0.00 0.00 73 1020.8
20260903141214 6 247 0.0 0.0 0.00 0.00 0.00 73 1020.9
20260903135218 7 247 0.0 0.0 0.00 0.00 0.00 71 1020.7
20260903134317 7 247 0.0 0.0 0.00 0.00 0.00 69 1020.7
20260903133317 7 247 0.0 0.0 0.00 0.00 0.00 69 1020.7
20260903132317 7 180 0.0 0.0 0.00 0.00 0.00 70 1020.6
20260903131319 7 180 0.0 0.0 0.00 0.00 0.00 71 1020.6
20260903130320 7 180 0.0 0.0 0.00 0.00 0.00 72 1020.7
20260903125418 7 180 0.0 0.0 0.00 0.00 0.00 71 1020.7
20260903124418 7 180 0.0 0.0 0.00 0.00 0.00 71 1020.9
20260903122418 7 180 0.0 0.0 0.00 0.00 0.00 71 1020.9
20260903120434 7 180 0.0 0.0 0.00 0.00 0.00 72 1021.1
20260903115518 7 180 0.0 0.0 0.00 0.00 0.00 71 1021.1
20260903114518 7 180 0.0 0.0 0.00 0.00 0.00 71 1021.2
20260903113617 7 180 0.0 0.0 0.00 0.00 0.00 71 1021.2
20260903112717 7 180 0.0 0.0 0.00 0.00 0.00 71 1021.2
20260903111719 7 180 0.0 0.0 0.00 0.00 0.00 72 1021.3
20260903110817 7 180 0.0 0.0 0.00 0.00 0.00 72 1021.3
20260903105820 7 180 0.0 0.0 0.00 0.00 0.00 72 1021.3
20260903104017 7 180 0.0 0.0 0.00 0.00 0.00 71 1021.4
20260903103018 7 180 0.0 0.0 0.00 0.00 0.00 70 1021.4
20260903102019 7 180 0.0 0.0 0.00 0.00 0.00 70 1021.6
20260903100017 7 180 0.0 0.0 0.00 0.00 0.00 70 1021.5
20260903095018 7 180 0.0 0.0 0.00 0.00 0.00 70 1021.5
20260903094021 8 180 0.0 0.0 0.00 0.00 0.00 71 1021.5
20260903093117 8 180 0.0 0.0 0.00 0.00 0.00 70 1021.6
20260903092121 8 180 0.0 0.0 0.00 0.00 0.00 70 1021.8
20260903090119 8 180 0.0 0.0 0.00 0.00 0.00 69 1021.8
20260903085134 8 180 0.0 0.0 0.00 0.00 0.00 70 1021.8
20260903084219 7 180 0.0 0.0 0.00 0.00 0.00 71 1021.9
20260903083219 7 180 0.0 0.0 0.00 0.00 0.00 72 1021.9
20260903082218 7 180 0.0 0.0 0.00 0.00 0.00 71 1022.0
20260903081219 7 180 0.0 0.0 0.00 0.00 0.00 72 1022.0
20260903080218 7 180 0.0 0.0 0.00 0.00 0.00 73 1021.9
20260903075218 7 180 0.0 0.0 0.00 0.00 0.00 74 1021.9
20260903074317 7 180 0.0 0.0 0.00 0.00 0.00 74 1021.8
20260903072418 7 180 0.0 0.0 0.00 0.00 0.00 74 1021.9
20260903071419 7 180 0.0 0.0 0.00 0.00 0.00 74 1021.9
20260903070517 7 180 0.0 0.0 0.00 0.00 0.00 74 1021.9
20260903064713 7 180 0.0 0.0 0.00 0.00 0.00 72 1022.0
20260903063715 7 180 0.0 0.0 0.00 0.00 0.00 73 1022.1
20260903062716 7 180 0.0 0.0 0.00 0.00 0.00 71 1022.1
20260903061816 7 180 0.0 0.0 0.00 0.00 0.00 70 1022.1
20260903060914 7 180 0.0 0.0 0.00 0.00 0.00 70 1022.1
20260903055916 7 180 0.0 0.0 0.00 0.00 0.00 69 1022.2
20260903052915 8 180 0.0 0.0 0.00 0.00 0.00 70 1022.4
20260903051914 8 180 0.0 0.0 0.00 0.00 0.00 68 1022.4
20260903050917 8 180 0.0 0.0 0.00 0.00 0.00 66 1022.6
20260903045916 8 180 0.0 0.0 0.00 0.00 0.00 67 1022.5
20260903044914 8 180 0.0 0.0 0.00 0.00 0.00 68 1022.7
20260903043917 8 180 0.0 0.0 0.00 0.00 0.00 66 1022.6
20260903042014 9 180 0.0 0.0 0.00 0.00 0.00 64 1022.7
20260903041015 10 180 0.0 0.0 0.00 0.00 0.00 64 1022.7
20260903040016 10 180 0.0 0.0 0.00 0.00 0.00 64 1022.7
20260903035016 10 180 0.0 0.0 0.00 0.00 0.00 62 1022.6
20260903034017 10 180 0.0 0.0 0.00 0.00 0.00 62 1022.6
20260903033015 10 180 0.0 0.0 0.00 0.00 0.00 61 1022.4
20260903032017 11 180 0.0 0.0 0.00 0.00 0.00 60 1022.3
20260903030033 11 180 0.0 0.0 0.00 0.00 0.00 57 1022.3
20260903025015 12 180 0.0 0.0 0.00 0.00 0.00 56 1022.2
20260903024017 12 180 0.0 0.0 0.00 0.00 0.00 55 1022.3
20260903022016 12 180 0.0 0.0 0.00 0.00 0.00 53 1022.5
20260903021014 13 181 0.0 0.0 0.00 0.00 0.00 52 1022.5
20260903020014 13 202 0.0 0.0 0.00 0.00 0.00 52 1022.5
20260903015016 13 157 0.0 0.0 0.00 0.00 0.00 51 1022.5
20260903014016 13 180 0.0 1.6 0.00 0.00 0.00 51 1022.6
20260903012017 14 225 0.0 0.0 0.00 0.00 0.00 49 1022.3
20260903011115 14 208 0.0 3.2 0.00 0.00 0.00 48 1022.4
20260903010213 14 247 0.0 3.2 0.00 0.00 0.00 49 1022.4
20260903005215 14 157 0.0 0.0 0.00 0.00 0.00 48 1022.4
20260903003217 15 150 0.0 3.2 0.00 0.00 0.00 47 1022.5
20260903002214 15 225 1.6 4.8 0.00 0.00 0.00 47 1022.5
20260903001215 15 215 4.8 11.3 0.00 0.00 0.00 47 1022.6
20260903000215 15 206 1.6 4.8 0.00 0.00 0.00 46 1022.5
20260902235218 15 187 3.2 4.8 0.00 0.00 0.00 46 1022.5
20260902234315 15 167 0.0 1.6 0.00 0.00 0.00 46 1022.6
20260902233414 16 295 0.0 3.2 0.00 0.00 0.00 45 1022.6
20260902232416 16 139 0.0 3.2 0.00 0.00 0.00 46 1022.5
20260902231513 16 205 3.2 6.4 0.00 0.00 0.00 45 1022.6
20260902230516 16 214 1.6 6.4 0.00 0.00 0.00 46 1022.7
20260902225516 16 195 3.2 6.4 0.00 0.00 0.00 45 1022.8
20260902224516 16 206 1.6 6.4 0.00 0.00 0.00 47 1022.8
20260902223613 16 159 3.2 8.0 0.00 0.00 0.00 46 1022.7
20260902221713 16 177 3.2 9.7 0.00 0.00 0.00 48 1022.8
20260902220717 16 194 4.8 8.0 0.00 0.00 0.00 46 1023.0
20260902215716 16 225 1.6 3.2 0.00 0.00 0.00 46 1023.0
20260902214715 16 225 1.6 4.8 0.00 0.00 0.00 46 1023.3
20260902212814 16 161 4.8 8.0 0.00 0.00 0.00 45 1023.2
20260902211816 16 172 6.4 12.9 0.00 0.00 0.00 47 1023.2
20260902210814 16 227 3.2 4.8 0.00 0.00 0.00 48 1023.0
20260902205816 16 229 3.2 9.7 0.00 0.00 0.00 48 1023.2
20260902204815 16 167 4.8 6.4 0.00 0.00 0.00 48 1023.1
20260902203815 16 160 8.0 12.9 0.00 0.00 0.00 47 1023.3
20260902202914 16 147 1.6 4.8 0.00 0.00 0.00 47 1023.2
20260902201915 15 141 3.2 8.0 0.00 0.00 0.00 47 1023.3
20260902201014 15 245 0.0 3.2 0.00 0.00 0.00 45 1023.4
20260902200031 16 232 4.8 6.4 0.00 0.00 0.00 46 1023.4
20260902195015 16 180 0.0 0.0 0.00 0.00 0.00 43 1023.3
20260902194014 16 162 4.8 11.3 0.00 0.00 0.00 42 1023.4
20260902192016 16 133 1.6 3.2 0.00 0.00 0.00 40 1023.4
20260902190131 16 206 4.8 9.7 0.00 0.00 0.00 41 1023.4
20260902185114 16 233 6.4 11.3 0.00 0.00 0.00 41 1023.4
20260902184121 17 165 8.0 11.3 0.00 0.00 0.00 41 1023.5
20260902183124 16 247 4.8 4.8 0.00 0.00 0.00 42 1023.3
20260902182141 16 137 1.6 9.7 0.00 0.00 0.00 43 1023.3
20260902181127 15 135 4.8 6.4 0.00 0.00 0.00 45 1023.3
20260902180126 15 165 6.4 8.0 0.00 0.00 0.00 47 1023.6
20260902175224 14 234 4.8 8.0 0.00 0.00 0.00 48 1023.3
20260902174226 14 207 3.2 6.4 0.00 0.00 0.00 48 1023.3
20260902173226 14 167 3.2 6.4 0.00 0.00 0.00 49 1023.2
20260902172324 14 172 4.8 9.7 0.00 0.00 0.00 50 1023.2
20260902171326 13 159 6.4 8.0 0.00 0.00 0.00 51 1023.2
20260902170326 13 171 3.2 6.4 0.00 0.00 0.00 51 1023.2
20260902163326 13 190 8.0 14.5 0.00 0.00 0.00 54 1023.1
20260902162325 13 152 4.8 8.0 0.00 0.00 0.00 52 1022.8
20260902161326 13 186 3.2 12.9 0.00 0.00 0.00 54 1022.9
20260902160326 12 224 0.0 0.0 0.00 0.00 0.00 57 1022.7
20260902155424 12 173 0.0 3.2 0.00 0.00 0.00 58 1022.8
20260902151425 11 138 0.0 0.0 0.00 0.00 0.00 61 1022.7
20260902150425 10 174 0.0 1.6 0.00 0.00 0.00 61 1022.7
20260902145428 10 186 1.6 3.2 0.00 0.00 0.00 62 1022.7
20260902144524 10 225 3.2 4.8 0.00 0.00 0.00 63 1022.6
20260902143540 9 180 1.6 4.8 0.00 0.00 0.00 62 1022.4